Showing default

LEMUR 2 TOMATOKECHUP, 60471

Orbit data source: Space-Track

LEMUR 2 TOMATOKECHUP, 60471 is an American payload satellite in SSO that was launched on Fri, 16 Aug 2024 UTC via an FALCON 9 launch vehicle from the Air Force Western Test Range (AFWTR). Payload-class satellites include a variety of spacecraft equipped with specific instruments for various scientific and technological missions. These include communications satellites like Starlink; space stations such as the ISS; scientific satellites like the Hubble; Earth observation satellites from companies like Planet Labs, Umbra, and HawkEye 360; GPS; miniature CubeSats for education and research; and military/defense satellites.

Loading next visibility...
Identifier
60471, 2024-149D
Orbit
SSO
Country
Flag of USUS
Related business
Manufacturer
Spire/Glasgow
Mission
Operational Commercial Communications
Bus & Motor
CUBESAT 16U, Unknown motor
Mass
22 kg wet, 22 kg dry
Launch date (UTC)
2024-08-16 (1 year ago)
Launch vehicle
FALCON 9
Launch site
Air Force Western Test Range (AFWTR)
Object type
Payload
Rocket body
Debris
Shape & HBR
Box + 4 Pan, 1.4 m
Radar Cross Section
0.326 m², Medium (>0.1 m² and < 1m²)

Expand to show TLE details & history
Last TLE update: 19 hours ago

TLE from 19 hours ago
0 LEMUR 2 TOMATOKECHUP
1 60471U 24149D   26034.16861710  .00013306  00000-0  42213-3 0  9991
2 60471  97.3906 116.1337 0001951  36.9578 323.1798 15.32807481 81618
Epoch: 2026-02-03T04:02Z
TLE epoch observation values (Epoch: 2026-02-03T04:02:48.517Z)
Latitude
-0.00004°
Longitude
-77.92187°
Altitude
469.479 km
Speed
7.632 km/s
True Right ascension
07h 44m 32s
True Declination
0° 00' 00"
Sunlit
Object was in full shadow at epoch
Visualization orbit readout
Latitude
Unknown
Longitude
Unknown
Altitude
Unknown
Speed
Unknown
Apparent Right ascension
Unknown
Apparent Declination
Unknown
Sunlit
N/A
Visualization observer readout
Local Sidereal Time
01:12:02
Azimuth
Unknown
Elevation
Unknown
Doppler factor
Unknown
Orbital elements
Apogee altitude
465.724 km
Perigee altitude
463.054 km
Semi-major axis
6,842.526 km
Eccentricity
0.0002
Inclination
97.3906°
RAAN
116.1337°
Arg. of periapsis
36.9578°
True anomaly
323.1664°
Mean anomaly
323.1798°
Eccentric anomaly
323.1731°
Mean motion
3.83459 °/min
Orbital period
93.88 mins
BSTAR
0.00042213
Loading maneuver chart data...
Computing Atmospheric mass density...
Loading historical data...
Loading historical data...
Loading historical data...
Loading historical data...
Loading historical data...
Loading historical data...
Loading historical data...

Documentation

Showing up to 5 results
|